User: anonymous   Login
Location: Roc des P�zouls
(43.9667°N, 3.5500°E)
Time: 15:23:58
(UTC+00:00)
Language:

USA 234 - Orbit

View from above orbital plane
View from above orbital plane
View from above satellite
View from above satellite

Ground track
Ground track

The orbit data is extracted from the following two-line orbital elements,

1 38109U 12014A   20016.74056516 0.00000000  00000-0  00000-0 0    05
2 38109 122.9957  43.3496 0005760  90.6988 269.3011 13.41431352    04
Epoch (UTC): 16 January 2020 17:46:24
Eccentricity: 0.0005760
inclination: 122.9957°
perigee height: 1099 km
apogee height: 1108 km
right ascension of ascending node: 43.3496°
argument of perigee: 90.6988°
revolutions per day: 13.41431352
mean anomaly at epoch: 269.3011°
orbit number at epoch: 0

The dashed part of the orbit path shows where the satellite is in the earth's shadow,  

DLR